Cloud_Cover
100 100 100 100 100 100 100 100 100 100 100 100 100 100 100 100 100 100 100 100 100 100 100 100 100 100 100 100 100 100 100 100 100 100 100 100 100 100 100 100 100 100 100 100 100 100 99 100 94 52 30 5 6 5
100 100 92 61 88 100 100 100 100 100 100 100 100 100 100 100 100 100 100 100 100 100 100 100 100 100 100 100 100 100 100 100 100 100 100 100 100 88 100 49 100 100 100 100 100 97 100 90 99 93 37 24 5 5
100 100 100 69 39 74 100 51 87 100 100 100 99 100 52 100 100 100 100 100 100 100 100 100 100 100 100 100 100 100 100 100 100 100 100 100 100 99 96 100 100 100 100 100 97 97 80 82 100 100 100 88 94 76
100 67 16 5 5 5 5 5 5 10 19 74 51 16 5 6 94 100 100 100 100 100 100 100 100 100 100 100 100 100 100 100 100 100 100 100 100 100 100 100 88 100 100 100 100 100 95 52 100 99 99 64 6 8
5 5 5 5 5 5 5 5 5 5 5 35 77 5 5 5 2 71 100 100 100 100 100 100 100 100 100 100 100 100 100 100 100 100 100 100 100 100 100 85 38 100 100 97 41 100 98 63 83 76 73 13 5 9
5 5 14 5 5 5 5 5 5 5 5 5 50 69 5 5 4 99 100 100 98 100 100 100 78 72 90 100 100 100 100 100 100 100 100 92 100 100 97 80 46 59 77 100 98 76 77 71 95 79 54 5 8 90
27 70 100 100 100 100 100 92 7 5 5 5 1 1 6 18 33 100 100 48 76 100 100 100 100 100 95 84 100 100 100 100 100 100 100 100 99 100 98 96 5 9 100 99 80 75 63 12 79 89 68 88 82 100
100 100 100 100 100 94 59 15 5 5 5 8 87 100 100 100 100 100 100 100 100 100 100 100 91 62 91 100 100 100 100 100 100 100 96 94 100 100 81 5 43 100 100 12 9 38 85 72 75 69 52 44 84 100
100 100 100 100 100 94 24 92 100 89 44 84 99 100 100 100 100 100 100 100 100 100 100 56 12 96 99 94 100 100 97 100 100 98 87 96 93 54 82 74 100 100 44 5 5 19 30 49 27 96 70 62 92 96
100 100 100 100 100 100 100 100 98 100 100 100 100 100 100 100 100 100 100 100 100 100 100 100 100 100 100 100 100 100 100 100 98 77 77 100 30 95 96 100 30 5 5 5 27 43 49 48 22 74 80 58 97 100
100 100 100 100 100 100 100 100 100 100 100 100 98 100 100 100 100 100 100 100 100 100 100 100 100 100 100 100 100 100 100 100 70 64 50 31 10 100 98 44 7 46 38 46 54 44 56 48 94 99 96 89 94 100
100 100 100 100 100 100 100 100 100 100 100 100 100 100 100 100 100 100 100 100 95 100 100 100 100 100 100 100 100 100 100 100 87 14 26 66 100 100 52 37 12 24 53 60 70 64 21 8 18 42 52 20 7 6
100 100 100 100 100 100 100 100 100 100 100 100 100 100 100 100 100 100 95 100 100 94 100 100 100 100 100 100 100 100 100 96 31 83 42 96 100 72 38 9 39 65 70 46 23 41 54 31 9 13 5 5 5 5
100 100 100 100 100 100 100 100 100 100 100 100 100 100 100 100 100 100 100 100 98 100 91 100 100 100 100 100 100 100 88 94 97 100 100 69 33 11 14 98 95 20 5 5 5 5 5 5 5 5 5 5 5 39
100 100 100 100 100 100 100 96 99 98 100 99 100 100 100 100 100 100 100 100 100 100 100 100 100 100 100 100 100 100 99 92 70 80 18 23 5 54 10 5 5 5 5 5 5 5 5 5 5 5 5 5 5 5
100 100 100 100 100 100 100 100 100 100 100 100 100 100 100 85 100 100 100 99 98 84 52 36 47 46 97 57 11 9 5 6 2 8 64 40 23 59 89 92 71 59 54 8 5 5 5 5 25 5 5 13 21 46
97 99 99 100 99 96 85 82 97 96 97 100 100 100 99 78 100 100 100 100 84 5 21 5 0 0 63 61 63 5 34 10 78 98 79 22 8 6 5 5 5 5 5 5 5 10 6 5 25 73 99 7 5 5
68 49 45 45 45 45 47 46 17 30 88 92 90 100 100 94 100 100 100 100 74 100 29 12 25 5 21 5 5 52 100 99 73 63 19 5 5 5 5 5 5 5 5 5 33 13 55 57 84 84 45 11 31 61
70 25 5 5 5 4 5 25 5 84 98 99 100 100 100 100 98 100 100 100 97 67 18 34 36 92 56 100 100 99 100 98 74 51 52 5 5 5 5 5 5 5 5 5 5 9 52 59 60 82 92 96 100 91
5 5 5 5 4 5 5 11 7 6 95 90 79 92 100 100 97 87 81 67 74 70 43 89 100 100 100 98 99 76 60 58 100 100 60 5 5 5 5 10 8 22 85 84 72 78 98 98 72 64 87 100 100 100
4 3 1 3 5 5 39 62 76 95 70 50 100 95 96 48 97 84 63 58 40 100 97 100 100 100 83 67 60 54 54 79 100 100 100 98 21 94 96 85 56 91 100 100 100 98 91 61 62 100 100 100 100 100
10 3 5 4 5 5 32 100 74 75 36 88 35 55 99 98 100 99 97 71 100 100 100 100 100 95 78 22 5 37 11 42 75 90 98 94 96 60 87 80 99 100 99 97 98 100 100 100 100 100 100 100 100 100
2 3 5 5 1 4 31 35 10 34 5 59 66 68 95 100 89 65 80 96 98 100 93 86 69 68 91 51 81 98 98 87 97 99 98 88 83 94 100 100 92 100 100 100 100 100 100 100 100 100 100 100 100 100
2 5 62 12 14 47 45 46 33 5 5 26 26 66 78 81 69 67 99 97 99 90 35 9 68 73 66 92 70 72 88 90 100 100 100 100 100 99 100 100 100 100 100 100 100 100 100 100 100 100 100 100 100 100
0 20 30 40 5 4 22 9 17 8 72 99 26 19 41 83 90 99 99 100 95 53 47 51 80 91 100 100 100 100 100 100 100 100 100 100 100 100 100 100 100 100 100 100 100 100 100 100 100 100 100 100 100 96
81 87 76 84 74 28 73 13 68 83 56 42 100 99 86 61 44 98 93 95 95 99 100 100 100 100 100 100 100 100 100 100 100 100 100 100 100 100 100 100 100 100 100 100 100 100 100 100 100 100 100 100 100 100
63 72 95 87 86 25 6 6 38 12 99 90 98 85 98 100 100 100 100 99 98 100 100 100 100 100 100 100 100 100 100 100 100 100 100 100 100 100 100 100 100 100 100 100 100 100 100 100 100 100 100 100 94 100
99 89 75 70 34 57 75 91 75 100 98 100 98 100 100 99 100 100 100 100 100 100 100 100 100 100 100 100 100 100 100 100 100 100 100 100 100 97 100 100 97 100 100 100 100 100 100 100 100 100 100 100 100 100
48 68 83 72 20 46 99 99 95 92 96 88 93 100 100 100 100 100 100 100 100 100 100 100 100 100 100 100 100 100 100 100 100 100 100 100 92 96 100 100 100 91 100 100 100 100 100 100 100 100 100 100 100 100
76 94 72 95 62 98 95 92 95 94 90 99 99 100 100 100 100 100 100 100 100 100 100 100 100 100 100 100 100 100 100 100 100 100 100 100 100 100 100 100 100 100 100 100 100 100 100 100 100 100 100 100 100 100
33 78 53 76 98 90 92 92 87 94 90 82 94 100 100 100 100 100 100 100 100 100 100 100 100 100 100 100 100 100 100 100 100 100 100 100 100 100 100 100 100 100 100 100 100 100 100 100 100 100 100 100 100 100
15 94 76 54 78 92 81 87 95 84 90 75 78 98 100 100 100 100 100 100 100 100 100 100 100 100 100 100 100 100 100 100 100 100 100 100 100 100 100 100 100 100 100 100 100 100 100 100 100 100 100 100 100 100
70 45 49 79 58 50 5 64 86 73 38 50 28 90 100 100 100 100 100 100 100 100 100 100 100 100 100 100 100 100 100 100 100 100 100 100 100 100 100 100 100 100 100 100 100 100 100 100 100 100 100 100 100 100